Location: Dennis Manor
(64.8292°N, 147.5397°W)
Time: 17:21:15
(UTC+00:00)

Envisat - Pass Details

Date: 03 November 2020
Orbit: 764 x 766 km, 98.1° (Epoch: 25 November)

Event Time Altitude Azimuth Distance (km) Brightness Sun altitude
Rises 15:54:16 0° 18° (NNE) 3,249 6.3 -11.7°
Reaches altitude 10° 15:56:38 10° 23° (NNE) 2,319 5.6 -11.5°
Maximum altitude 16:01:40 56° 102° (ESE) 909 3.8 -10.9°
Drops below altitude 10° 16:06:40 10° 181° (S) 2,304 5.6 -10.4°
Sets 16:09:01 0° 186° (S) 3,226 6.4 -10.2°
